Orbital Elements at Epoch 2459200.5 (2020-Dec-17.0) TDB
Reference: JPL 20 (heliocentric ecliptic J2000)
Element | Value | Uncertainty (1-sigma) | Units |
e | .1756866358751797 | 3.0173e-08 | |
a | 2.600191550071514 | 1.1943e-08 | au |
q | 2.143372644008381 | 7.5042e-08 | au |
i | 6.127313246532787 | 4.1339e-06 | deg |
node | 194.8176566496387 | 3.689e-05 | deg |
peri | 228.7181813019409 | 4.1305e-05 | deg |
M | 123.1903148852743 | 1.746e-05 | deg |
tp | 2458676.440611996933 (2019-Jul-11.94061200) | 7.2655e-05 | TDB |
period | 1531.462760337955 4.19 | 1.0552e-05 2.889e-08 | d yr |
n | .2350693789776234 | 1.6196e-09 | deg/d |
Q | 3.057010456134647 | 1.4042e-08 | au |
|
| | Orbit Determination Parameters
Additional Information
|